Find Iperdrone.0

NORAD ID: 60520 Int'l Des: 2024-149 Owner: ASI Country: I operational
LEOCIRCULARRETROGRADESSO

現在のビュー

3D地球を読み込み中...

Iperdrone.0について

説明を読み込み中...

次回通過

Passes for default location (London). Set your location on the main map for personalized predictions.

高度履歴

Loading altitude history...

軌道要素

1 60520U 24149BE 26158.78544933 .00071430 00000-0 71579-3 0 9995
2 60520 97.3782 251.5441 0002738 252.7419 107.3541 15.65310519101440
Epoch: Jun 7, 2026 • Age: 14 hours

現在のステータス

高度 390.0 km
速度 7.68 km/s
衛星直下点 -48.18°S, 123.1°W
打ち上げ日 Aug 16, 2024
運用期間 1.8 years
タイプ other

技術仕様

分類 Payload
質量 12.00 kg
乾燥質量 12.00 kg
総質量 12.00 kg
長さ 0.30 m
直径 0.20 m
スパン 0.60 m
形状 Box + 2 pan
製造者 TERRAN/ARGOT
バスタイプ Cubesat 6U
フェーズステータス In Orbit
所有者/国 ASI/I

Most Searched